Hutchinson, KS

11:29 PM CST on December 11, 2017 (GMT -0600)
Hutchinson Municipal

Weather History for KHUT - April, 2013

Change the Weather History Date:

Tuesday, April 23, 2013

  Actual Average Record
Temperature  
Mean Temperature 32 °F -  
Max Temperature 35 °F 67 °F 93 °F (2006)
Min Temperature 30 °F 42 °F 30 °F (2013)
Degree Days  
Heating Degree Days 32    
Moisture  
Dew Point 27 °F    
Average Humidity 80    
Maximum Humidity 89    
Minimum Humidity 64    
Precipitation  
Precipitation 0.16 in - - ()
Sea Level Pressure  
Sea Level Pressure 30.16 in    
Wind  
Wind Speed 20 mph (North)    
Max Wind Speed 28 mph    
Max Gust Speed 43 mph    
Visibility 7 miles    
Events Rain , Snow , Thunderstorm    
Averages and records for this station are not official NWS values.
T = Trace of Precipitation, MM = Missing Value Source: NWS Daily Summary

Daily Weather History Graph

Daily Weather History Graph

Search for Another Location

Airport or City:

Trip Planner

Search our weather history database for the weather conditions in past years. The results will help you decide how hot, cold, wet, or windy it might be!

Date:

Astronomy

Apr. 23, 2013 Rise Set
Actual Time 6:44 AM CDT 8:15 PM CDT
Civil Twilight 6:16 AM CDT 8:43 PM CDT
Nautical Twilight 5:43 AM CDT 9:16 PM CDT
Astronomical Twilight 5:08 AM CDT 9:51 PM CDT
Moon 6:13 PM CDT (4/23) 5:11 AM CDT (4/23)
Length of Visible Light 14h 26m
Length of Day
13h 30m
Waxing Gibbous, 94% of the Moon is Illuminated
Apr 23
Waxing Gibbous
Apr 25
Full
May 2
Last Quarter
May 9
New
May 17
First Quarter

Hourly Weather History & Observations

Time (CDT) Temp. Windchill Dew Point Humidity Pressure Visibility Wind Dir Wind Speed Gust Speed Precip Events Conditions
12:13 AM 35.6 °F 25.5 °F 30.2 °F 81% 30.06 in 7.0 mi NNE 17.3 mph 31.1 mph 0.00 in Thunderstorm Overcast
12:43 AM 33.8 °F 21.9 °F 30.2 °F 87% 30.08 in 3.0 mi North 21.9 mph 38.0 mph 0.04 in Rain Heavy Rain
12:49 AM 33.8 °F 21.3 °F 30.2 °F 87% 30.09 in 3.0 mi North 24.2 mph 34.5 mph 0.05 in Rain Rain
12:52 AM 34.0 °F 22.4 °F 30.9 °F 89% 30.08 in 3.0 mi North 20.7 mph 34.5 mph 0.05 in Snow Light Snow
1:52 AM 33.1 °F 19.6 °F 30.0 °F 89% 30.04 in 3.0 mi North 27.6 mph 42.6 mph 0.09 in Rain , Thunderstorm Heavy Thunderstorms and Rain
2:06 AM 33.8 °F 20.5 °F 30.2 °F 87% 30.09 in 3.0 mi North 27.6 mph 36.8 mph 0.03 in Rain Rain
3:03 AM 33.8 °F 20.5 °F 28.4 °F 81% 30.04 in 7.0 mi NNE 27.6 mph 39.1 mph 0.00 in Rain , Thunderstorm Light Freezing Rain
3:35 AM 33.8 °F 21.9 °F 28.4 °F 81% 30.06 in 8.0 mi NNE 21.9 mph 33.4 mph 0.00 in Rain Light Freezing Rain
3:52 AM 33.1 °F 21.2 °F 28.9 °F 85% 30.06 in 10.0 mi North 20.7 mph 35.7 mph 0.00 in Rain Light Freezing Rain
4:04 AM 33.8 °F 21.6 °F 28.4 °F 81% 30.07 in 10.0 mi NNE 23.0 mph 32.2 mph 0.00 in   Overcast
4:52 AM 33.1 °F 20.6 °F 28.0 °F 82% 30.07 in 10.0 mi North 23.0 mph 40.3 mph 0.00 in   Overcast
5:52 AM 32.0 °F 18.4 °F 28.0 °F 85% 30.09 in 10.0 mi North 26.5 mph 35.7 mph 0.00 in   Overcast
6:25 AM 32.0 °F 19.8 °F 28.4 °F 87% 30.12 in 6.0 mi North 20.7 mph 32.2 mph 0.01 in Rain Light Freezing Rain
6:41 AM 32.0 °F 18.6 °F 28.4 °F 87% 30.11 in 3.0 mi North 25.3 mph 33.4 mph 0.02 in Snow Light Snow
6:52 AM 32.0 °F 20.5 °F 28.0 °F 85% 30.10 in 3.0 mi North 18.4 mph 28.8 mph 0.02 in Snow Light Snow
7:52 AM 30.9 °F 18.1 °F 27.0 °F 85% 30.15 in 9.0 mi North 21.9 mph 33.4 mph 0.00 in   Overcast
9:50 AM 30.2 °F 17.8 °F 26.6 °F 86% 30.18 in 4.0 mi North 19.6 mph 29.9 mph 0.00 in Rain Light Freezing Rain
9:52 AM 30.9 °F 18.4 °F 27.0 °F 85% 30.19 in 3.0 mi North 20.7 mph 29.9 mph 0.00 in Rain Light Freezing Rain
10:52 AM 30.9 °F 19.1 °F 27.0 °F 85% 30.20 in 4.0 mi North 18.4 mph 32.2 mph 0.00 in Rain Light Freezing Rain
11:04 AM 30.2 °F 17.1 °F 26.6 °F 86% 30.19 in 4.0 mi North 21.9 mph 28.8 mph 0.00 in Rain Light Freezing Rain
11:13 AM 30.2 °F 17.8 °F 26.6 °F 86% 30.20 in 4.0 mi North 19.6 mph 28.8 mph 0.00 in Rain Light Freezing Rain
11:25 AM 30.2 °F 18.9 °F 26.6 °F 86% 30.20 in 5.0 mi North 16.1 mph 29.9 mph 0.00 in   Haze
11:52 AM 30.9 °F 20.2 °F 27.0 °F 85% 30.22 in 6.0 mi North 15.0 mph 24.2 mph 0.00 in   Overcast
12:52 PM 32.0 °F 20.8 °F 27.0 °F 82% 30.23 in 8.0 mi North 17.3 mph 25.3 mph N/A   Overcast
1:52 PM 32.0 °F 19.8 °F 26.1 °F 79% 30.22 in 7.0 mi North 20.7 mph 32.2 mph N/A   Overcast
2:11 PM 33.8 °F 22.5 °F 24.8 °F 70% 30.20 in 10.0 mi North 19.6 mph 26.5 mph N/A   Overcast
2:52 PM 33.1 °F 21.2 °F 25.0 °F 72% 30.21 in 10.0 mi North 20.7 mph 26.5 mph N/A   Overcast
3:52 PM 34.0 °F 23.8 °F 24.1 °F 67% 30.20 in 10.0 mi North 16.1 mph 25.3 mph N/A   Overcast
4:52 PM 34.0 °F 23.8 °F 24.1 °F 67% 30.19 in 10.0 mi North 16.1 mph 25.3 mph N/A   Overcast
5:52 PM 35.1 °F 25.2 °F 25.0 °F 67% 30.19 in 10.0 mi NNW 16.1 mph 24.2 mph N/A   Overcast
6:52 PM 35.1 °F 24.8 °F 24.1 °F 64% 30.20 in 10.0 mi North 17.3 mph - N/A   Overcast
7:52 PM 34.0 °F 24.6 °F 24.1 °F 67% 30.23 in 10.0 mi NNW 13.8 mph - N/A   Overcast
8:52 PM 34.0 °F 28.0 °F 26.1 °F 73% 30.25 in 10.0 mi NNW 6.9 mph - 0.00 in   Overcast
9:52 PM 34.0 °F 27.2 °F 27.0 °F 75% 30.27 in 10.0 mi NW 8.1 mph - N/A   Overcast
10:52 PM 34.0 °F 27.2 °F 27.0 °F 75% 30.27 in 10.0 mi NW 8.1 mph - N/A   Overcast
11:52 PM 34.0 °F 27.2 °F 26.1 °F 73% 30.28 in 10.0 mi NW 8.1 mph - N/A   Mostly Cloudy